Weather History for Pottstown, PA

Change the Weather History Date:

Wednesday, March 5, 2014

  Actual Average (KRDG) Record (KRDG)
Temperature  
Mean Temperature 26 °F 37 °F  
Max Temperature 37 °F 47 °F 74 °F (1974)
Min Temperature 15 °F 28 °F 5 °F (1978)
Degree Days  
Heating Degree Days 39 28  
Month to date heating degree days 142  
Since 1 July heating degree days 4184  
Cooling Degree Days 0 0  
Month to date cooling degree days 0  
Year to date cooling degree days 0  
Moisture  
Dew Point 9 °F    
Average Humidity 51    
Maximum Humidity 77    
Minimum Humidity 29    
Precipitation  
Precipitation 0.00 in 0.10 in 1.18 in (1899)
Month to date precipitation 0.42  
Year to date precipitation 5.95  
Sea Level Pressure  
Sea Level Pressure 30.29 in    
Wind  
Wind Speed 4 mph (North)    
Max Wind Speed 16 mph    
Max Gust Speed 24 mph    
Visibility 10 miles    
Events      
T = Trace of Precipitation, MM = Missing Value Source: NWS Daily Summary

Daily Weather History Graph

Daily Weather History Graph

Search for Another Location

Airport:

Trip Planner

Search our weather history database for the weather conditions in past years. The results will help you decide how hot, cold, wet, or windy it might be!

Date:

Astronomy

Mar. 05, 2014 Rise Set
Actual Time 6:29 AM EST 5:58 PM EST
Civil Twilight 6:02 AM EST 6:25 PM EST
Nautical Twilight 5:31 AM EST 6:56 PM EST
Astronomical Twilight 4:59 AM EST 7:28 PM EST
Moon 8:53 AM EST (3/5) 11:05 PM EST (3/5)
Length of Visible Light 12h 22m
Length of Day
11h 28m
Waxing Crescent, 23% of the Moon is Illuminated
Mar 5
Waxing Crescent
Mar 8
First Quarter
Mar 16
Full
Mar 23
Last Quarter
Mar 30
New

Hourly Weather History & Observations

Time (EST) Temp. Windchill Dew Point Humidity Pressure Visibility Wind Dir Wind Speed Gust Speed Precip Events Conditions
12:54 AM 19.0 °F - 9.0 °F 65% 30.25 in 10.0 mi Calm Calm - N/A   Overcast
1:54 AM 17.1 °F - 9.0 °F 71% 30.24 in 10.0 mi Calm Calm - N/A   Partly Cloudy
2:54 AM 16.0 °F - 8.1 °F 71% 30.22 in 10.0 mi Calm Calm - N/A   Clear
3:54 AM 15.1 °F - 8.1 °F 74% 30.22 in 10.0 mi Calm Calm - N/A   Clear
4:54 AM 15.1 °F - 9.0 °F 77% 30.23 in 10.0 mi Calm Calm - N/A   Mostly Cloudy
5:54 AM 16.0 °F - 8.1 °F 71% 30.25 in 10.0 mi Calm Calm - N/A   Overcast
6:54 AM 17.1 °F - 9.0 °F 71% 30.26 in 10.0 mi Calm Calm - N/A   Mostly Cloudy
7:54 AM 19.0 °F - 10.0 °F 68% 30.27 in 10.0 mi Calm Calm - N/A   Clear
8:54 AM 25.0 °F - 9.0 °F 51% 30.25 in 10.0 mi Calm Calm - N/A   Clear
9:54 AM 30.0 °F 26.5 °F 8.1 °F 40% 30.26 in 10.0 mi Variable 3.5 mph - N/A   Mostly Cloudy
10:54 AM 33.1 °F 30.0 °F 6.1 °F 32% 30.25 in 10.0 mi NNE 3.5 mph - N/A   Partly Cloudy
11:54 AM 35.1 °F 29.3 °F 6.1 °F 30% 30.25 in 10.0 mi North 6.9 mph - 0.00 in   Mostly Cloudy
12:54 PM 37.0 °F 30.4 °F 7.0 °F 29% 30.22 in 10.0 mi NNW 9.2 mph - N/A   Clear
1:54 PM 37.0 °F 28.9 °F 7.0 °F 29% 30.23 in 10.0 mi North 12.7 mph - 0.00 in   Mostly Cloudy
2:54 PM 36.0 °F 29.0 °F 8.1 °F 31% 30.24 in 10.0 mi NNW 9.2 mph - N/A   Overcast
3:54 PM 37.0 °F 32.4 °F 8.1 °F 30% 30.25 in 10.0 mi North 5.8 mph - N/A   Partly Cloudy
4:54 PM 36.0 °F 28.5 °F 8.1 °F 31% 30.26 in 10.0 mi North 10.4 mph - N/A   Scattered Clouds
5:54 PM 33.1 °F 23.4 °F 12.0 °F 42% 30.29 in 10.0 mi North 13.8 mph - N/A   Clear
6:54 PM 30.9 °F 21.7 °F 12.0 °F 46% 30.34 in 10.0 mi North 11.5 mph - N/A   Overcast
7:54 PM 30.0 °F 18.7 °F 12.9 °F 49% 30.38 in 10.0 mi North 16.1 mph - N/A   Mostly Cloudy
8:54 PM 27.0 °F 14.7 °F 12.0 °F 53% 30.40 in 10.0 mi North 16.1 mph 24.2 mph N/A   Clear
9:54 PM 26.1 °F 15.6 °F 10.9 °F 53% 30.42 in 10.0 mi North 11.5 mph 23.0 mph N/A   Clear
10:54 PM 24.1 °F 13.7 °F 10.0 °F 55% 30.44 in 10.0 mi North 10.4 mph 17.3 mph N/A   Clear
11:54 PM 21.9 °F 13.4 °F 10.0 °F 60% 30.46 in 10.0 mi North 6.9 mph - N/A   Clear